| time (UTC) | temp C | wind direction | speed KPH | gust KPH | rain 1hr cm | rain 24hr cm | rain mn cm | humidity % | barometer mb |
| 20260905053003 | 22 | 27 | 0.0 | 1.6 | 0.00 | 0.00 | 0.00 | 94 | 1012.2 |
| 20260905052503 | 22 | 0 | 0.0 | 0.0 | 0.00 | 0.00 | 0.00 | 94 | 1012.2 |
| 20260905052003 | 22 | 0 | 0.0 | 0.0 | 0.00 | 0.00 | 0.00 | 94 | 1012.2 |
| 20260905051524 | 22 | 0 | 0.0 | 0.0 | 0.00 | 0.00 | 0.00 | 94 | 1012.2 |
| 20260905051003 | 22 | 27 | 0.0 | 1.6 | 0.00 | 0.00 | 0.00 | 93 | 1012.2 |
| 20260905050503 | 22 | 27 | 0.0 | 1.6 | 0.00 | 0.00 | 0.00 | 94 | 1012.3 |
| 20260905050003 | 22 | 27 | 0.0 | 1.6 | 0.00 | 0.00 | 0.00 | 94 | 1012.3 |
| 20260905045503 | 22 | 27 | 0.0 | 1.6 | 0.00 | 0.00 | 0.00 | 94 | 1012.3 |
| 20260905045003 | 22 | 0 | 0.0 | 0.0 | 0.00 | 0.00 | 0.00 | 93 | 1012.3 |
| 20260905044503 | 23 | 0 | 0.0 | 0.0 | 0.00 | 0.00 | 0.00 | 93 | 1012.3 |
| 20260905044024 | 23 | 0 | 0.0 | 0.0 | 0.00 | 0.00 | 0.00 | 93 | 1012.3 |
| 20260905043524 | 23 | 0 | 0.0 | 0.0 | 0.00 | 0.00 | 0.00 | 93 | 1012.3 |
| 20260905043003 | 23 | 0 | 0.0 | 0.0 | 0.00 | 0.00 | 0.00 | 93 | 1012.3 |
| 20260905042503 | 23 | 0 | 0.0 | 0.0 | 0.00 | 0.00 | 0.00 | 93 | 1012.3 |
| 20260905042003 | 23 | 0 | 0.0 | 0.0 | 0.00 | 0.00 | 0.00 | 92 | 1012.3 |
| 20260905041503 | 23 | 0 | 0.0 | 0.0 | 0.00 | 0.00 | 0.00 | 92 | 1012.3 |
| 20260905041003 | 23 | 0 | 0.0 | 0.0 | 0.00 | 0.00 | 0.00 | 92 | 1012.3 |
| 20260905040503 | 23 | 0 | 0.0 | 0.0 | 0.00 | 0.00 | 0.00 | 92 | 1012.2 |
| 20260905040003 | 23 | 0 | 0.0 | 0.0 | 0.00 | 0.00 | 0.00 | 91 | 1012.2 |
| 20260905035503 | 23 | 0 | 0.0 | 0.0 | 0.00 | 0.00 | 0.00 | 91 | 1012.2 |
| 20260905035003 | 23 | 0 | 0.0 | 0.0 | 0.00 | 0.00 | 0.00 | 90 | 1012.2 |
| 20260905034503 | 23 | 0 | 0.0 | 0.0 | 0.00 | 0.00 | 0.00 | 90 | 1012.2 |
| 20260905034003 | 23 | 0 | 0.0 | 0.0 | 0.00 | 0.00 | 0.00 | 90 | 1012.2 |
| 20260905033503 | 23 | 0 | 0.0 | 0.0 | 0.00 | 0.00 | 0.00 | 89 | 1012.2 |
| 20260905033003 | 24 | 27 | 0.0 | 3.2 | 0.00 | 0.00 | 0.00 | 89 | 1012.2 |
| 20260905032524 | 24 | 27 | 0.0 | 3.2 | 0.00 | 0.00 | 0.00 | 89 | 1012.2 |
| 20260905032003 | 24 | 27 | 0.0 | 1.6 | 0.00 | 0.00 | 0.00 | 88 | 1012.3 |
| 20260905031503 | 24 | 0 | 0.0 | 0.0 | 0.00 | 0.00 | 0.00 | 88 | 1012.3 |
| 20260905031003 | 25 | 27 | 0.0 | 1.6 | 0.00 | 0.00 | 0.00 | 87 | 1012.3 |
| 20260905030503 | 25 | 27 | 0.0 | 3.2 | 0.00 | 0.00 | 0.00 | 86 | 1012.3 |
| 20260905030003 | 25 | 56 | 0.0 | 3.2 | 0.00 | 0.00 | 0.00 | 86 | 1012.3 |
| 20260905025503 | 25 | 94 | 0.0 | 3.2 | 0.00 | 0.00 | 0.00 | 85 | 1012.4 |
| 20260905025024 | 25 | 98 | 0.0 | 1.6 | 0.00 | 0.00 | 0.00 | 84 | 1012.3 |
| 20260905024503 | 25 | 98 | 0.0 | 1.6 | 0.00 | 0.00 | 0.00 | 84 | 1012.3 |
| 20260905024003 | 25 | 98 | 0.0 | 1.6 | 0.00 | 0.00 | 0.00 | 83 | 1012.2 |
| 20260905023503 | 26 | 96 | 0.0 | 3.2 | 0.00 | 0.00 | 0.00 | 82 | 1012.2 |
| 20260905023024 | 26 | 87 | 0.0 | 3.2 | 0.00 | 0.00 | 0.00 | 82 | 1012.2 |
| 20260905022503 | 26 | 77 | 1.6 | 3.2 | 0.00 | 0.00 | 0.00 | 80 | 1012.2 |
| 20260905022003 | 26 | 77 | 1.6 | 4.8 | 0.00 | 0.00 | 0.00 | 80 | 1012.2 |
| 20260905021503 | 26 | 90 | 3.2 | 6.4 | 0.00 | 0.00 | 0.00 | 80 | 1012.2 |
| 20260905021003 | 26 | 90 | 3.2 | 6.4 | 0.00 | 0.00 | 0.00 | 80 | 1012.2 |
| 20260905020503 | 26 | 71 | 3.2 | 8.0 | 0.00 | 0.00 | 0.00 | 81 | 1012.2 |
| 20260905020003 | 26 | 62 | 4.8 | 9.7 | 0.00 | 0.00 | 0.00 | 81 | 1012.1 |
| 20260905015503 | 26 | 59 | 4.8 | 9.7 | 0.00 | 0.00 | 0.00 | 81 | 1012.1 |
| 20260905015003 | 26 | 44 | 3.2 | 8.0 | 0.00 | 0.00 | 0.00 | 82 | 1012.1 |
| 20260905014503 | 26 | 34 | 3.2 | 6.4 | 0.00 | 0.00 | 0.00 | 82 | 1012.0 |
| 20260905014003 | 26 | 44 | 3.2 | 6.4 | 0.00 | 0.00 | 0.00 | 81 | 1012.0 |
| 20260905013503 | 26 | 36 | 3.2 | 6.4 | 0.00 | 0.00 | 0.00 | 82 | 1011.9 |
| 20260905013024 | 26 | 22 | 1.6 | 4.8 | 0.00 | 0.00 | 0.00 | 82 | 1011.8 |
| 20260905012524 | 26 | 12 | 1.6 | 4.8 | 0.00 | 0.00 | 0.00 | 83 | 1011.8 |
| 20260905012003 | 26 | 15 | 1.6 | 8.0 | 0.00 | 0.00 | 0.00 | 84 | 1011.8 |
| 20260905011524 | 26 | 35 | 3.2 | 8.0 | 0.00 | 0.00 | 0.00 | 83 | 1011.7 |
| 20260905011003 | 26 | 50 | 3.2 | 9.7 | 0.00 | 0.00 | 0.00 | 83 | 1011.6 |
| 20260905010524 | 26 | 49 | 4.8 | 11.3 | 0.00 | 0.00 | 0.00 | 84 | 1011.5 |
| 20260905010003 | 26 | 46 | 1.6 | 11.3 | 0.00 | 0.00 | 0.00 | 85 | 1011.5 |
| 20260905005503 | 27 | 0 | 0.0 | 0.0 | 0.00 | 0.00 | 0.00 | 84 | 1011.4 |
| 20260905005003 | 27 | 0 | 0.0 | 0.0 | 0.00 | 0.00 | 0.00 | 82 | 1011.3 |
| 20260905004524 | 27 | 0 | 0.0 | 0.0 | 0.00 | 0.00 | 0.00 | 83 | 1011.2 |
| 20260905004003 | 27 | 161 | 0.0 | 1.6 | 0.00 | 0.00 | 0.00 | 82 | 1011.1 |
| 20260905003503 | 27 | 162 | 0.0 | 1.6 | 0.00 | 0.00 | 0.00 | 82 | 1011.1 |
| 20260905003003 | 27 | 165 | 0.0 | 1.6 | 0.00 | 0.00 | 0.00 | 82 | 1011.0 |
| 20260905002503 | 28 | 256 | 0.0 | 3.2 | 0.00 | 0.00 | 0.00 | 79 | 1011.0 |
| 20260905002003 | 28 | 245 | 1.6 | 3.2 | 0.00 | 0.00 | 0.00 | 78 | 1010.8 |
| 20260905001503 | 28 | 235 | 1.6 | 3.2 | 0.00 | 0.00 | 0.00 | 76 | 1010.8 |
| 20260905001003 | 29 | 212 | 0.0 | 1.6 | 0.00 | 0.00 | 0.00 | 76 | 1010.8 |
| 20260905000503 | 29 | 213 | 0.0 | 3.2 | 0.00 | 0.00 | 0.00 | 75 | 1010.7 |
| 20260905000003 | 30 | 213 | 0.0 | 3.2 | 0.00 | 0.00 | 0.00 | 75 | 1010.6 |
| 20260904235503 | 30 | 213 | 0.0 | 3.2 | 0.00 | 0.00 | 0.00 | 72 | 1010.7 |
| 20260904235003 | 31 | 213 | 0.0 | 1.6 | 0.00 | 0.00 | 0.00 | 72 | 1010.7 |
| 20260904234503 | 31 | 213 | 0.0 | 1.6 | 0.00 | 0.00 | 0.00 | 70 | 1010.7 |
| 20260904234003 | 31 | 213 | 0.0 | 3.2 | 0.00 | 0.00 | 0.00 | 68 | 1010.8 |
| 20260904233503 | 31 | 213 | 0.0 | 3.2 | 0.00 | 0.00 | 0.00 | 68 | 1010.7 |
| 20260904233003 | 32 | 217 | 0.0 | 3.2 | 0.00 | 0.00 | 0.00 | 66 | 1010.9 |
| 20260904232503 | 32 | 225 | 0.0 | 3.2 | 0.00 | 0.00 | 0.00 | 66 | 1010.8 |
| 20260904232003 | 32 | 235 | 1.6 | 3.2 | 0.00 | 0.00 | 0.00 | 65 | 1010.6 |
| 20260904231524 | 33 | 238 | 1.6 | 3.2 | 0.00 | 0.00 | 0.00 | 63 | 1010.8 |
| 20260904231003 | 33 | 242 | 1.6 | 3.2 | 0.00 | 0.00 | 0.00 | 61 | 1010.8 |
| 20260904230503 | 34 | 246 | 0.0 | 3.2 | 0.00 | 0.00 | 0.00 | 60 | 1010.9 |
| 20260904230003 | 34 | 270 | 1.6 | 3.2 | 0.00 | 0.00 | 0.00 | 59 | 1011.0 |
| 20260904225503 | 34 | 285 | 1.6 | 4.8 | 0.00 | 0.00 | 0.00 | 59 | 1011.2 |
| 20260904225024 | 34 | 280 | 1.6 | 4.8 | 0.00 | 0.00 | 0.00 | 56 | 1011.2 |
| 20260904224503 | 35 | 287 | 1.6 | 4.8 | 0.00 | 0.00 | 0.00 | 57 | 1011.4 |
| 20260904224003 | 35 | 295 | 3.2 | 4.8 | 0.00 | 0.00 | 0.00 | 57 | 1011.4 |
| 20260904223503 | 35 | 293 | 3.2 | 8.0 | 0.00 | 0.00 | 0.00 | 57 | 1011.4 |
| 20260904223024 | 35 | 297 | 3.2 | 8.0 | 0.00 | 0.00 | 0.00 | 58 | 1011.6 |
| 20260904222503 | 35 | 299 | 3.2 | 8.0 | 0.00 | 0.00 | 0.00 | 59 | 1011.7 |
| 20260904222003 | 35 | 296 | 3.2 | 8.0 | 0.00 | 0.00 | 0.00 | 55 | 1011.7 |
| 20260904221503 | 35 | 292 | 3.2 | 6.4 | 0.00 | 0.00 | 0.00 | 56 | 1011.7 |
| 20260904221024 | 35 | 291 | 3.2 | 4.8 | 0.00 | 0.00 | 0.00 | 57 | 1011.8 |
| 20260904220503 | 35 | 290 | 3.2 | 6.4 | 0.00 | 0.00 | 0.00 | 56 | 1011.8 |
| 20260904220003 | 35 | 295 | 3.2 | 6.4 | 0.00 | 0.00 | 0.00 | 55 | 1011.8 |
| 20260904215503 | 35 | 297 | 4.8 | 6.4 | 0.00 | 0.00 | 0.00 | 53 | 1011.9 |
| 20260904215003 | 35 | 294 | 3.2 | 6.4 | 0.00 | 0.00 | 0.00 | 55 | 1011.8 |
| 20260904214524 | 35 | 292 | 3.2 | 6.4 | 0.00 | 0.00 | 0.00 | 56 | 1011.8 |
| 20260904214024 | 35 | 291 | 4.8 | 9.7 | 0.00 | 0.00 | 0.00 | 55 | 1011.6 |
| 20260904213503 | 35 | 291 | 4.8 | 9.7 | 0.00 | 0.00 | 0.00 | 55 | 1011.6 |
| 20260904213003 | 35 | 298 | 3.2 | 8.0 | 0.00 | 0.00 | 0.00 | 57 | 1011.6 |
| 20260904212503 | 35 | 301 | 3.2 | 8.0 | 0.00 | 0.00 | 0.00 | 54 | 1011.7 |
| 20260904212003 | 35 | 294 | 4.8 | 8.0 | 0.00 | 0.00 | 0.00 | 54 | 1011.6 |
| 20260904211503 | 35 | 296 | 4.8 | 9.7 | 0.00 | 0.00 | 0.00 | 56 | 1011.6 |
| 20260904211003 | 35 | 303 | 4.8 | 9.7 | 0.00 | 0.00 | 0.00 | 55 | 1011.6 |
| 20260904210503 | 35 | 297 | 4.8 | 8.0 | 0.00 | 0.00 | 0.00 | 56 | 1011.6 |
| 20260904210003 | 35 | 292 | 4.8 | 8.0 | 0.00 | 0.00 | 0.00 | 54 | 1011.6 |
| 20260904205503 | 35 | 296 | 3.2 | 8.0 | 0.00 | 0.00 | 0.00 | 55 | 1011.7 |
| 20260904205003 | 35 | 298 | 4.8 | 8.0 | 0.00 | 0.00 | 0.00 | 53 | 1011.7 |
| 20260904204503 | 36 | 300 | 4.8 | 8.0 | 0.00 | 0.00 | 0.00 | 55 | 1011.7 |
| 20260904204003 | 36 | 301 | 4.8 | 9.7 | 0.00 | 0.00 | 0.00 | 49 | 1011.7 |
| 20260904203503 | 36 | 300 | 4.8 | 9.7 | 0.00 | 0.00 | 0.00 | 49 | 1011.6 |
| 20260904203024 | 36 | 293 | 4.8 | 9.7 | 0.00 | 0.00 | 0.00 | 51 | 1011.6 |
| 20260904202503 | 36 | 275 | 6.4 | 11.3 | 0.00 | 0.00 | 0.00 | 52 | 1011.9 |
| 20260904202003 | 36 | 269 | 4.8 | 11.3 | 0.00 | 0.00 | 0.00 | 51 | 1012.0 |
| 20260904201503 | 36 | 282 | 4.8 | 9.7 | 0.00 | 0.00 | 0.00 | 47 | 1011.9 |
| 20260904201024 | 36 | 280 | 4.8 | 11.3 | 0.00 | 0.00 | 0.00 | 54 | 1012.0 |
| 20260904200503 | 36 | 272 | 4.8 | 11.3 | 0.00 | 0.00 | 0.00 | 50 | 1011.9 |
| 20260904200003 | 36 | 277 | 4.8 | 11.3 | 0.00 | 0.00 | 0.00 | 51 | 1012.0 |
| 20260904195503 | 36 | 291 | 4.8 | 11.3 | 0.00 | 0.00 | 0.00 | 55 | 1012.2 |
| 20260904195003 | 36 | 299 | 4.8 | 9.7 | 0.00 | 0.00 | 0.00 | 53 | 1012.3 |
| 20260904194503 | 36 | 282 | 6.4 | 17.7 | 0.00 | 0.00 | 0.00 | 50 | 1012.3 |
| 20260904194003 | 36 | 271 | 6.4 | 17.7 | 0.00 | 0.00 | 0.00 | 51 | 1012.5 |
| 20260904193503 | 36 | 264 | 4.8 | 14.5 | 0.00 | 0.00 | 0.00 | 53 | 1012.6 |
| 20260904193003 | 36 | 267 | 6.4 | 16.1 | 0.00 | 0.00 | 0.00 | 49 | 1012.7 |
| 20260904192503 | 36 | 274 | 4.8 | 16.1 | 0.00 | 0.00 | 0.00 | 49 | 1012.7 |
| 20260904192024 | 36 | 286 | 4.8 | 12.9 | 0.00 | 0.00 | 0.00 | 51 | 1012.7 |
| 20260904191503 | 36 | 280 | 4.8 | 12.9 | 0.00 | 0.00 | 0.00 | 55 | 1012.9 |
| 20260904191003 | 36 | 282 | 4.8 | 9.7 | 0.00 | 0.00 | 0.00 | 51 | 1012.9 |
| 20260904190524 | 36 | 272 | 6.4 | 16.1 | 0.00 | 0.00 | 0.00 | 53 | 1012.9 |
| 20260904190024 | 36 | 268 | 8.0 | 16.1 | 0.00 | 0.00 | 0.00 | 52 | 1013.0 |
| 20260904185503 | 36 | 277 | 8.0 | 16.1 | 0.00 | 0.00 | 0.00 | 51 | 1012.9 |
| 20260904185024 | 35 | 278 | 6.4 | 16.1 | 0.00 | 0.00 | 0.00 | 51 | 1012.9 |
| 20260904184503 | 35 | 276 | 6.4 | 14.5 | 0.00 | 0.00 | 0.00 | 56 | 1013.0 |
| 20260904184003 | 36 | 277 | 6.4 | 16.1 | 0.00 | 0.00 | 0.00 | 55 | 1013.1 |
| 20260904183524 | 36 | 284 | 6.4 | 16.1 | 0.00 | 0.00 | 0.00 | 52 | 1013.1 |
| 20260904183003 | 35 | 300 | 6.4 | 11.3 | 0.00 | 0.00 | 0.00 | 56 | 1013.2 |
| 20260904182503 | 35 | 298 | 6.4 | 12.9 | 0.00 | 0.00 | 0.00 | 53 | 1013.2 |
| 20260904182003 | 36 | 283 | 6.4 | 14.5 | 0.00 | 0.00 | 0.00 | 55 | 1013.2 |
| 20260904181503 | 35 | 288 | 6.4 | 14.5 | 0.00 | 0.00 | 0.00 | 55 | 1013.2 |
| 20260904181003 | 35 | 297 | 6.4 | 12.9 | 0.00 | 0.00 | 0.00 | 56 | 1013.3 |
| 20260904180524 | 35 | 285 | 6.4 | 16.1 | 0.00 | 0.00 | 0.00 | 57 | 1013.2 |
| 20260904180003 | 36 | 271 | 6.4 | 16.1 | 0.00 | 0.00 | 0.00 | 55 | 1013.3 |
| 20260904175524 | 35 | 285 | 8.0 | 12.9 | 0.00 | 0.00 | 0.00 | 54 | 1013.4 |
| 20260904175003 | 35 | 294 | 8.0 | 12.9 | 0.00 | 0.00 | 0.00 | 56 | 1013.4 |
| 20260904174503 | 35 | 281 | 6.4 | 14.5 | 0.00 | 0.00 | 0.00 | 57 | 1013.5 |
| 20260904174003 | 35 | 283 | 6.4 | 14.5 | 0.00 | 0.00 | 0.00 | 57 | 1013.6 |
| 20260904173524 | 35 | 289 | 4.8 | 11.3 | 0.00 | 0.00 | 0.00 | 59 | 1013.7 |
| 20260904173003 | 35 | 292 | 4.8 | 11.3 | 0.00 | 0.00 | 0.00 | 59 | 1013.7 |
| 20260904172503 | 36 | 286 | 3.2 | 12.9 | 0.00 | 0.00 | 0.00 | 55 | 1013.8 |
| 20260904172003 | 36 | 266 | 4.8 | 16.1 | 0.00 | 0.00 | 0.00 | 55 | 1013.9 |
| 20260904171503 | 35 | 271 | 6.4 | 16.1 | 0.00 | 0.00 | 0.00 | 55 | 1013.9 |
| 20260904171003 | 35 | 288 | 4.8 | 11.3 | 0.00 | 0.00 | 0.00 | 54 | 1013.9 |
| 20260904170524 | 35 | 291 | 4.8 | 11.3 | 0.00 | 0.00 | 0.00 | 57 | 1013.9 |
| 20260904170003 | 35 | 280 | 4.8 | 11.3 | 0.00 | 0.00 | 0.00 | 56 | 1014.0 |
| 20260904165503 | 35 | 274 | 3.2 | 9.7 | 0.00 | 0.00 | 0.00 | 58 | 1014.0 |
| 20260904165003 | 35 | 273 | 4.8 | 12.9 | 0.00 | 0.00 | 0.00 | 56 | 1014.0 |
| 20260904164503 | 35 | 273 | 6.4 | 12.9 | 0.00 | 0.00 | 0.00 | 55 | 1014.0 |
| 20260904164003 | 35 | 284 | 4.8 | 9.7 | 0.00 | 0.00 | 0.00 | 58 | 1014.1 |
| 20260904163503 | 35 | 283 | 4.8 | 9.7 | 0.00 | 0.00 | 0.00 | 61 | 1014.1 |
| 20260904163003 | 35 | 266 | 3.2 | 9.7 | 0.00 | 0.00 | 0.00 | 59 | 1014.1 |
| 20260904162503 | 35 | 262 | 4.8 | 12.9 | 0.00 | 0.00 | 0.00 | 59 | 1014.2 |
| 20260904162024 | 35 | 275 | 4.8 | 12.9 | 0.00 | 0.00 | 0.00 | 57 | 1014.1 |
| 20260904161503 | 35 | 283 | 4.8 | 11.3 | 0.00 | 0.00 | 0.00 | 61 | 1014.2 |
| 20260904161003 | 35 | 277 | 4.8 | 11.3 | 0.00 | 0.00 | 0.00 | 63 | 1014.2 |
| 20260904160503 | 35 | 275 | 4.8 | 9.7 | 0.00 | 0.00 | 0.00 | 61 | 1014.2 |
| 20260904160003 | 34 | 280 | 4.8 | 9.7 | 0.00 | 0.00 | 0.00 | 59 | 1014.2 |
| 20260904155503 | 35 | 286 | 4.8 | 9.7 | 0.00 | 0.00 | 0.00 | 62 | 1014.2 |
| 20260904155003 | 34 | 279 | 4.8 | 9.7 | 0.00 | 0.00 | 0.00 | 63 | 1014.2 |
| 20260904154503 | 34 | 265 | 3.2 | 8.0 | 0.00 | 0.00 | 0.00 | 64 | 1014.2 |
| 20260904154003 | 34 | 257 | 3.2 | 8.0 | 0.00 | 0.00 | 0.00 | 64 | 1014.2 |
| 20260904153503 | 34 | 266 | 4.8 | 12.9 | 0.00 | 0.00 | 0.00 | 60 | 1014.2 |
| 20260904153003 | 33 | 283 | 4.8 | 12.9 | 0.00 | 0.00 | 0.00 | 59 | 1014.2 |
| 20260904152503 | 33 | 283 | 3.2 | 8.0 | 0.00 | 0.00 | 0.00 | 64 | 1014.2 |
| 20260904152024 | 33 | 274 | 4.8 | 8.0 | 0.00 | 0.00 | 0.00 | 65 | 1014.1 |
| 20260904151524 | 33 | 274 | 4.8 | 8.0 | 0.00 | 0.00 | 0.00 | 61 | 1014.1 |
| 20260904151003 | 33 | 269 | 4.8 | 9.7 | 0.00 | 0.00 | 0.00 | 65 | 1014.2 |
| 20260904150503 | 33 | 255 | 3.2 | 11.3 | 0.00 | 0.00 | 0.00 | 67 | 1014.1 |
| 20260904150003 | 32 | 245 | 3.2 | 11.3 | 0.00 | 0.00 | 0.00 | 66 | 1014.1 |
| 20260904145503 | 32 | 255 | 3.2 | 8.0 | 0.00 | 0.00 | 0.00 | 66 | 1014.1 |
| 20260904145003 | 32 | 249 | 3.2 | 8.0 | 0.00 | 0.00 | 0.00 | 67 | 1014.1 |
| 20260904144503 | 32 | 244 | 3.2 | 6.4 | 0.00 | 0.00 | 0.00 | 67 | 1014.2 |
| 20260904144003 | 32 | 256 | 3.2 | 6.4 | 0.00 | 0.00 | 0.00 | 70 | 1014.2 |
| 20260904143503 | 32 | 264 | 3.2 | 8.0 | 0.00 | 0.00 | 0.00 | 73 | 1014.2 |
| 20260904143003 | 32 | 265 | 3.2 | 8.0 | 0.00 | 0.00 | 0.00 | 71 | 1014.1 |
| 20260904142524 | 31 | 264 | 3.2 | 9.7 | 0.00 | 0.00 | 0.00 | 70 | 1014.3 |
| 20260904142003 | 31 | 270 | 4.8 | 9.7 | 0.00 | 0.00 | 0.00 | 69 | 1014.2 |
| 20260904141524 | 31 | 275 | 3.2 | 8.0 | 0.00 | 0.00 | 0.00 | 71 | 1014.2 |
| 20260904141003 | 31 | 266 | 3.2 | 8.0 | 0.00 | 0.00 | 0.00 | 73 | 1014.2 |
| 20260904140524 | 30 | 260 | 3.2 | 8.0 | 0.00 | 0.00 | 0.00 | 75 | 1014.3 |
| 20260904140003 | 30 | 256 | 3.2 | 6.4 | 0.00 | 0.00 | 0.00 | 78 | 1014.3 |
| 20260904135503 | 30 | 258 | 3.2 | 6.4 | 0.00 | 0.00 | 0.00 | 76 | 1014.3 |
| 20260904135003 | 30 | 255 | 3.2 | 6.4 | 0.00 | 0.00 | 0.00 | 76 | 1014.3 |
| 20260904134503 | 30 | 248 | 1.6 | 6.4 | 0.00 | 0.00 | 0.00 | 76 | 1014.3 |
| 20260904134003 | 29 | 246 | 1.6 | 6.4 | 0.00 | 0.00 | 0.00 | 76 | 1014.3 |
| 20260904133503 | 29 | 236 | 3.2 | 6.4 | 0.00 | 0.00 | 0.00 | 78 | 1014.3 |
| 20260904133003 | 29 | 230 | 3.2 | 6.4 | 0.00 | 0.00 | 0.00 | 77 | 1014.3 |
| 20260904132503 | 28 | 238 | 1.6 | 6.4 | 0.00 | 0.00 | 0.00 | 77 | 1014.3 |
| 20260904132003 | 28 | 256 | 1.6 | 3.2 | 0.00 | 0.00 | 0.00 | 80 | 1014.4 |
| 20260904131503 | 28 | 246 | 0.0 | 3.2 | 0.00 | 0.00 | 0.00 | 81 | 1014.4 |
| 20260904131003 | 27 | 198 | 0.0 | 3.2 | 0.00 | 0.00 | 0.00 | 83 | 1014.4 |
| 20260904130503 | 27 | 203 | 0.0 | 3.2 | 0.00 | 0.00 | 0.00 | 84 | 1014.4 |
| 20260904130003 | 27 | 230 | 0.0 | 3.2 | 0.00 | 0.00 | 0.00 | 86 | 1014.4 |
| 20260904125503 | 26 | 0 | 0.0 | 0.0 | 0.00 | 0.00 | 0.00 | 87 | 1014.5 |
| 20260904125003 | 26 | 175 | 0.0 | 1.6 | 0.00 | 0.00 | 0.00 | 89 | 1014.4 |
| 20260904124503 | 26 | 175 | 0.0 | 1.6 | 0.00 | 0.00 | 0.00 | 92 | 1014.4 |
| 20260904124003 | 25 | 0 | 0.0 | 0.0 | 0.00 | 0.00 | 0.00 | 94 | 1014.4 |
| 20260904123503 | 25 | 0 | 0.0 | 0.0 | 0.00 | 0.00 | 0.00 | 94 | 1014.4 |
| 20260904123024 | 24 | 0 | 0.0 | 0.0 | 0.00 | 0.00 | 0.00 | 95 | 1014.3 |
| 20260904122503 | 23 | 0 | 0.0 | 0.0 | 0.00 | 0.00 | 0.00 | 96 | 1014.1 |
| 20260904122003 | 23 | 0 | 0.0 | 0.0 | 0.00 | 0.00 | 0.00 | 96 | 1014.2 |
| 20260904121503 | 23 | 0 | 0.0 | 0.0 | 0.00 | 0.00 | 0.00 | 97 | 1014.1 |
| 20260904121003 | 23 | 0 | 0.0 | 0.0 | 0.00 | 0.00 | 0.00 | 97 | 1014.2 |
| 20260904120503 | 22 | 0 | 0.0 | 0.0 | 0.00 | 0.00 | 0.00 | 97 | 1014.1 |
| 20260904120003 | 22 | 0 | 0.0 | 0.0 | 0.00 | 0.00 | 0.00 | 97 | 1014.0 |
| 20260904115503 | 22 | 0 | 0.0 | 0.0 | 0.00 | 0.00 | 0.00 | 97 | 1014.0 |
| 20260904115003 | 22 | 0 | 0.0 | 0.0 | 0.00 | 0.00 | 0.00 | 97 | 1013.9 |
| 20260904114503 | 21 | 0 | 0.0 | 0.0 | 0.00 | 0.00 | 0.00 | 97 | 1013.9 |
| 20260904114003 | 21 | 0 | 0.0 | 0.0 | 0.00 | 0.00 | 0.00 | 97 | 1013.9 |
| 20260904113503 | 21 | 0 | 0.0 | 0.0 | 0.00 | 0.00 | 0.00 | 97 | 1013.8 |
| 20260904113003 | 21 | 0 | 0.0 | 0.0 | 0.00 | 0.00 | 0.00 | 97 | 1013.8 |
| 20260904112503 | 21 | 0 | 0.0 | 0.0 | 0.00 | 0.00 | 0.00 | 97 | 1013.8 |
| 20260904112003 | 21 | 0 | 0.0 | 0.0 | 0.00 | 0.00 | 0.00 | 97 | 1013.7 |
| 20260904111503 | 21 | 0 | 0.0 | 0.0 | 0.00 | 0.00 | 0.00 | 96 | 1013.7 |
| 20260904111003 | 21 | 0 | 0.0 | 0.0 | 0.00 | 0.00 | 0.00 | 96 | 1013.7 |
| 20260904110503 | 21 | 0 | 0.0 | 0.0 | 0.00 | 0.00 | 0.00 | 97 | 1013.6 |
| 20260904110003 | 21 | 0 | 0.0 | 0.0 | 0.00 | 0.00 | 0.00 | 96 | 1013.5 |
| 20260904105503 | 21 | 0 | 0.0 | 0.0 | 0.00 | 0.00 | 0.00 | 97 | 1013.5 |
| 20260904105003 | 21 | 0 | 0.0 | 0.0 | 0.00 | 0.00 | 0.00 | 97 | 1013.5 |
| 20260904104524 | 21 | 0 | 0.0 | 0.0 | 0.00 | 0.00 | 0.00 | 97 | 1013.5 |
| 20260904104003 | 21 | 0 | 0.0 | 0.0 | 0.00 | 0.00 | 0.00 | 97 | 1013.4 |
| 20260904103503 | 21 | 0 | 0.0 | 0.0 | 0.00 | 0.00 | 0.00 | 97 | 1013.4 |
| 20260904103003 | 21 | 0 | 0.0 | 0.0 | 0.00 | 0.00 | 0.00 | 97 | 1013.4 |
| 20260904102503 | 21 | 0 | 0.0 | 0.0 | 0.00 | 0.00 | 0.00 | 97 | 1013.3 |
| 20260904102003 | 21 | 0 | 0.0 | 0.0 | 0.00 | 0.00 | 0.00 | 97 | 1013.4 |
| 20260904101503 | 21 | 0 | 0.0 | 0.0 | 0.00 | 0.00 | 0.00 | 96 | 1013.4 |
| 20260904101003 | 21 | 0 | 0.0 | 0.0 | 0.00 | 0.00 | 0.00 | 96 | 1013.3 |
| 20260904100503 | 21 | 0 | 0.0 | 0.0 | 0.00 | 0.00 | 0.00 | 96 | 1013.3 |
| 20260904100003 | 21 | 0 | 0.0 | 0.0 | 0.00 | 0.00 | 0.00 | 96 | 1013.2 |
| 20260904095503 | 21 | 0 | 0.0 | 0.0 | 0.00 | 0.00 | 0.00 | 96 | 1013.2 |
| 20260904095003 | 22 | 0 | 0.0 | 0.0 | 0.00 | 0.00 | 0.00 | 96 | 1013.2 |
| 20260904094503 | 22 | 0 | 0.0 | 0.0 | 0.00 | 0.00 | 0.00 | 97 | 1013.2 |
| 20260904094003 | 22 | 0 | 0.0 | 0.0 | 0.00 | 0.00 | 0.00 | 97 | 1013.2 |
| 20260904093503 | 22 | 0 | 0.0 | 0.0 | 0.00 | 0.00 | 0.00 | 96 | 1013.1 |
| 20260904093003 | 22 | 0 | 0.0 | 0.0 | 0.00 | 0.00 | 0.00 | 96 | 1013.2 |
| 20260904092503 | 21 | 0 | 0.0 | 0.0 | 0.00 | 0.00 | 0.00 | 96 | 1013.2 |
| 20260904092003 | 21 | 0 | 0.0 | 0.0 | 0.00 | 0.00 | 0.00 | 96 | 1013.2 |
| 20260904091524 | 21 | 0 | 0.0 | 0.0 | 0.00 | 0.00 | 0.00 | 96 | 1013.2 |
| 20260904091003 | 21 | 0 | 0.0 | 0.0 | 0.00 | 0.00 | 0.00 | 96 | 1013.2 |
| 20260904090503 | 22 | 0 | 0.0 | 0.0 | 0.00 | 0.00 | 0.00 | 96 | 1013.2 |
| 20260904090003 | 22 | 0 | 0.0 | 0.0 | 0.00 | 0.00 | 0.00 | 96 | 1013.2 |
| 20260904085503 | 22 | 0 | 0.0 | 0.0 | 0.00 | 0.00 | 0.00 | 96 | 1013.3 |
| 20260904085003 | 22 | 0 | 0.0 | 0.0 | 0.00 | 0.00 | 0.00 | 96 | 1013.2 |
| 20260904084503 | 22 | 0 | 0.0 | 0.0 | 0.00 | 0.00 | 0.00 | 96 | 1013.2 |
| 20260904084003 | 22 | 0 | 0.0 | 0.0 | 0.00 | 0.00 | 0.00 | 96 | 1013.1 |
| 20260904083503 | 22 | 0 | 0.0 | 0.0 | 0.00 | 0.00 | 0.00 | 96 | 1013.1 |
| 20260904083003 | 22 | 0 | 0.0 | 0.0 | 0.00 | 0.00 | 0.00 | 96 | 1013.1 |
| 20260904082503 | 22 | 0 | 0.0 | 0.0 | 0.00 | 0.00 | 0.00 | 96 | 1013.2 |
| 20260904082003 | 22 | 0 | 0.0 | 0.0 | 0.00 | 0.00 | 0.00 | 96 | 1013.1 |
| 20260904081503 | 22 | 0 | 0.0 | 0.0 | 0.00 | 0.00 | 0.00 | 95 | 1013.1 |
| 20260904081003 | 22 | 0 | 0.0 | 0.0 | 0.00 | 0.00 | 0.00 | 96 | 1013.1 |
| 20260904080503 | 22 | 0 | 0.0 | 0.0 | 0.00 | 0.00 | 0.00 | 96 | 1013.1 |
| 20260904080003 | 22 | 0 | 0.0 | 0.0 | 0.00 | 0.00 | 0.00 | 96 | 1013.0 |
| 20260904075503 | 22 | 0 | 0.0 | 0.0 | 0.00 | 0.00 | 0.00 | 96 | 1013.1 |
| 20260904075003 | 22 | 0 | 0.0 | 0.0 | 0.00 | 0.00 | 0.00 | 96 | 1013.0 |
| 20260904074524 | 22 | 0 | 0.0 | 0.0 | 0.00 | 0.00 | 0.00 | 96 | 1013.0 |
| 20260904074003 | 22 | 0 | 0.0 | 0.0 | 0.00 | 0.00 | 0.00 | 96 | 1012.9 |
| 20260904073503 | 22 | 0 | 0.0 | 0.0 | 0.00 | 0.00 | 0.00 | 95 | 1013.0 |
| 20260904073003 | 22 | 0 | 0.0 | 0.0 | 0.00 | 0.00 | 0.00 | 95 | 1012.9 |
| 20260904072503 | 22 | 0 | 0.0 | 0.0 | 0.00 | 0.00 | 0.00 | 95 | 1013.0 |
| 20260904072003 | 22 | 0 | 0.0 | 0.0 | 0.00 | 0.00 | 0.00 | 95 | 1013.0 |
| 20260904071524 | 22 | 0 | 0.0 | 0.0 | 0.00 | 0.00 | 0.00 | 96 | 1013.0 |
| 20260904071003 | 22 | 0 | 0.0 | 0.0 | 0.00 | 0.00 | 0.00 | 96 | 1013.0 |
| 20260904070503 | 22 | 0 | 0.0 | 0.0 | 0.00 | 0.00 | 0.00 | 96 | 1013.2 |
| 20260904070024 | 22 | 0 | 0.0 | 0.0 | 0.00 | 0.00 | 0.00 | 95 | 1013.2 |
| 20260904065503 | 22 | 0 | 0.0 | 0.0 | 0.00 | 0.00 | 0.00 | 95 | 1013.2 |
| 20260904065003 | 22 | 0 | 0.0 | 0.0 | 0.00 | 0.00 | 0.00 | 95 | 1013.2 |
| 20260904064503 | 22 | 0 | 0.0 | 0.0 | 0.00 | 0.00 | 0.00 | 95 | 1013.3 |
| 20260904064003 | 22 | 0 | 0.0 | 0.0 | 0.00 | 0.00 | 0.00 | 95 | 1013.3 |
| 20260904063503 | 22 | 0 | 0.0 | 0.0 | 0.00 | 0.00 | 0.00 | 95 | 1013.3 |
| 20260904063003 | 22 | 0 | 0.0 | 0.0 | 0.00 | 0.00 | 0.00 | 95 | 1013.4 |
| 20260904062524 | 23 | 0 | 0.0 | 0.0 | 0.00 | 0.00 | 0.00 | 95 | 1013.4 |
| 20260904062003 | 23 | 0 | 0.0 | 0.0 | 0.00 | 0.00 | 0.00 | 95 | 1013.4 |
| 20260904061503 | 23 | 0 | 0.0 | 0.0 | 0.00 | 0.00 | 0.00 | 95 | 1013.4 |
| 20260904061003 | 22 | 0 | 0.0 | 0.0 | 0.00 | 0.00 | 0.00 | 95 | 1013.5 |
| 20260904060503 | 22 | 0 | 0.0 | 0.0 | 0.00 | 0.00 | 0.00 | 95 | 1013.6 |
| 20260904060003 | 23 | 0 | 0.0 | 0.0 | 0.00 | 0.00 | 0.00 | 95 | 1013.6 |
| 20260904055503 | 23 | 0 | 0.0 | 0.0 | 0.00 | 0.00 | 0.00 | 95 | 1013.6 |
| 20260904055003 | 23 | 0 | 0.0 | 0.0 | 0.00 | 0.00 | 0.00 | 94 | 1013.5 |
| 20260904054503 | 23 | 0 | 0.0 | 0.0 | 0.00 | 0.00 | 0.00 | 95 | 1013.5 |
| 20260904054003 | 23 | 0 | 0.0 | 0.0 | 0.00 | 0.00 | 0.00 | 95 | 1013.6 |
| 20260904053503 | 23 | 0 | 0.0 | 0.0 | 0.00 | 0.00 | 0.00 | 95 | 1013.6 |